RYR1YP LDDU-LOWW

Flight info

Callsign RYR1YP
Flight time N/A
Altitude 36000
Route MADOS L187 GEBNI DCT OBUTI OBUTI2W
Aircraft A320/M-SDE3FGHIRWY/LB1

Departure

Time 2025-10-28 08:48
Airport Dubrovnik Ruđer Bošković Airport (LDDU)

Arrival

Time N/A
Airport Vienna International Airport (LOWW)
Time Latitude Longitude Altitude Speed Heading
2025-10-28 08:23 42.56225 18.25944 534 ft 0 kts 208°
2025-10-28 08:39 42.56245 18.25959 534 ft 3 kts 208°
2025-10-28 08:39 42.56274 18.25990 534 ft 3 kts 266°
2025-10-28 08:40 42.56266 18.26026 534 ft 2 kts 298°
2025-10-28 08:40 42.56263 18.26033 534 ft 0 kts 298°
2025-10-28 08:43 42.56264 18.26030 534 ft 1 kts 298°
2025-10-28 08:43 42.56305 18.25929 534 ft 9 kts 298°
2025-10-28 08:44 42.56381 18.25738 534 ft 14 kts 298°
2025-10-28 08:44 42.56489 18.25467 534 ft 19 kts 297°
2025-10-28 08:45 42.56627 18.25120 534 ft 23 kts 298°
2025-10-28 08:45 42.56772 18.24751 534 ft 10 kts 298°
2025-10-28 08:45 42.56829 18.24677 534 ft 13 kts 340°
2025-10-28 08:46 42.56918 18.24855 533 ft 17 kts 117°
2025-10-28 08:47 42.56047 18.27050 565 ft 164 kts 115°
2025-10-28 08:47 42.54966 18.29723 1953 ft 163 kts 116°
2025-10-28 08:48 42.53778 18.32680 2773 ft 201 kts 118°
2025-10-28 08:48 42.51625 18.35772 3572 ft 256 kts 148°
2025-10-28 08:49 42.48019 18.36866 5188 ft 277 kts 186°
2025-10-28 08:49 42.44471 18.34868 6885 ft 283 kts 216°
2025-10-28 08:50 42.42722 18.33526 7748 ft 287 kts 209°
2025-10-28 08:50 42.39282 18.30792 9407 ft 286 kts 233°
2025-10-28 08:51 42.38406 18.23393 10980 ft 298 kts 298°
2025-10-28 08:51 42.41606 18.19721 12060 ft 315 kts 338°
2025-10-28 08:52 42.45785 18.17795 13576 ft 319 kts 339°
2025-10-28 08:52 42.50015 18.15894 14963 ft 321 kts 339°
2025-10-28 08:53 42.54259 18.13981 16331 ft 322 kts 339°
2025-10-28 08:53 42.56386 18.13019 17011 ft 323 kts 339°
2025-10-28 08:54 42.60655 18.11080 18383 ft 325 kts 339°
2025-10-28 08:54 42.64956 18.09119 19571 ft 328 kts 338°
2025-10-28 08:55 42.71515 18.06126 21290 ft 334 kts 338°
2025-10-28 08:55 42.75958 18.04095 22397 ft 339 kts 339°
2025-10-28 08:56 42.80457 18.02037 23461 ft 344 kts 339°
2025-10-28 08:56 42.85020 17.99944 24370 ft 348 kts 339°
2025-10-28 08:57 42.89628 17.97830 25242 ft 351 kts 339°
2025-10-28 08:59 43.08514 17.89128 28555 ft 365 kts 340°
2025-10-28 09:00 43.24728 17.81603 31150 ft 369 kts 340°
2025-10-28 09:03 43.47359 17.71030 34744 ft 367 kts 337°
2025-10-28 09:04 43.61078 17.64575 36096 ft 373 kts 336°